When you browse on this site, cookies collect data to enhance your experience and personalize the content and advertising you see.
Visit our Privacy Policy to learn more. By continuing to use the site, you agree to this use of cookies and data.
  • In Österreich
  • Länderverzeichnis
  • Für 7 Tage
  • Wassertemperatur
  • Satellitenkarten
  • Wetterkarte
  • News
  • Widgets
  • user-avatar
    Anmelden

    Stündliche Wetter Brest

    Heute, 26 Mai, Sonntag

    Zeit Temperatur Niederschläge Wind Luftdruck Luftfeuchtigkeit
    00:00 +13°C° 0 mm 2 m/S 746 mmHg 93%
    01:00 +13°C° 0 mm 2 m/S 746 mmHg 94%
    02:00 +12°C° 0 mm 2 m/S 747 mmHg 95%
    03:00 +12°C° 0 mm 1 m/S 747 mmHg 95%
    04:00 +12°C° 0 mm 1 m/S 747 mmHg 95%
    05:00 +11°C° 0 mm 1 m/S 747 mmHg 94%
    06:00 +13°C° 0 mm 2 m/S 747 mmHg 88%
    07:00 +13°C° 0 mm 4 m/S 747 mmHg 82%
    08:00 +14°C° 0 mm 5 m/S 747 mmHg 76%
    09:00 +15°C° 0 mm 5 m/S 747 mmHg 72%
    10:00 +16°C° 0 mm 5 m/S 747 mmHg 69%
    11:00 +17°C° 0 mm 6 m/S 747 mmHg 65%
    12:00 +19°C° 0 mm 6 m/S 747 mmHg 64%
    13:00 +19°C° 0 mm 6 m/S 747 mmHg 63%
    14:00 +20°C° 0 mm 6 m/S 747 mmHg 63%
    15:00 +20°C° 0 mm 5 m/S 747 mmHg 62%
    16:00 +20°C° 0 mm 5 m/S 746 mmHg 62%
    17:00 +20°C° 0 mm 5 m/S 746 mmHg 62%
    18:00 +19°C° 0 mm 4 m/S 746 mmHg 68%
    19:00 +18°C° 0 mm 3 m/S 746 mmHg 73%
    20:00 +16°C° 0 mm 2 m/S 746 mmHg 78%
    21:00 +15°C° 0 mm 2 m/S 746 mmHg 81%
    22:00 +14°C° 0 mm 2 m/S 746 mmHg 84%
    23:00 +13°C° 0 mm 2 m/S 746 mmHg 86%

    Morgen, 27 Mai, Montag

    Zeit Temperatur Niederschläge Wind Luftdruck Luftfeuchtigkeit
    00:00 +13°C° 0 mm 2 m/S 746 mmHg 86%
    01:00 +12°C° 0 mm 3 m/S 746 mmHg 87%
    02:00 +12°C° 0 mm 3 m/S 746 mmHg 87%
    03:00 +12°C° 0 mm 3 m/S 746 mmHg 87%
    04:00 +12°C° 0 mm 3 m/S 746 mmHg 87%
    05:00 +12°C° 0 mm 3 m/S 746 mmHg 87%
    06:00 +14°C° 0 mm 4 m/S 746 mmHg 84%
    07:00 +17°C° 0 mm 4 m/S 746 mmHg 80%
    08:00 +19°C° 0 mm 4 m/S 746 mmHg 76%
    09:00 +20°C° 0 mm 5 m/S 746 mmHg 71%
    10:00 +22°C° 0 mm 5 m/S 746 mmHg 66%
    11:00 +23°C° 0 mm 5 m/S 746 mmHg 61%
    12:00 +24°C° 0.3 mm 6 m/S 746 mmHg 62%
    13:00 +24°C° 0.3 mm 6 m/S 745 mmHg 63%
    14:00 +24°C° 0.3 mm 6 m/S 745 mmHg 63%
    15:00 +25°C° 0.4 mm 5 m/S 745 mmHg 66%
    16:00 +25°C° 0.4 mm 5 m/S 745 mmHg 69%
    17:00 +23°C° 0.4 mm 5 m/S 745 mmHg 71%
    18:00 +22°C° 0.2 mm 4 m/S 745 mmHg 76%
    19:00 +21°C° 0.2 mm 3 m/S 745 mmHg 81%
    20:00 +20°C° 0.2 mm 2 m/S 745 mmHg 85%
    21:00 +19°C° 0.2 mm 2 m/S 745 mmHg 87%
    22:00 +19°C° 0.2 mm 2 m/S 745 mmHg 89%
    23:00 +18°C° 0.2 mm 2 m/S 745 mmHg 91%

    übermorgen, 28 Mai, Dienstag

    Zeit Temperatur Niederschläge Wind Luftdruck Luftfeuchtigkeit
    00:00 +17°C° 0 mm 2 m/S 745 mmHg 92%
    01:00 +17°C° 0 mm 2 m/S 745 mmHg 92%
    02:00 +17°C° 0 mm 2 m/S 745 mmHg 93%
    03:00 +17°C° 0 mm 2 m/S 744 mmHg 93%
    04:00 +17°C° 0 mm 2 m/S 744 mmHg 93%
    05:00 +17°C° 0 mm 2 m/S 744 mmHg 92%
    06:00 +17°C° 0.1 mm 3 m/S 743 mmHg 91%
    07:00 +18°C° 0.1 mm 3 m/S 743 mmHg 89%
    08:00 +19°C° 0.1 mm 4 m/S 743 mmHg 88%
    09:00 +21°C° 0.1 mm 5 m/S 743 mmHg 80%
    10:00 +23°C° 0.1 mm 6 m/S 742 mmHg 73%
    11:00 +26°C° 0.1 mm 8 m/S 742 mmHg 65%
    12:00 +26°C° 0.1 mm 7 m/S 742 mmHg 62%
    13:00 +27°C° 0.1 mm 7 m/S 742 mmHg 59%
    14:00 +28°C° 0.1 mm 6 m/S 741 mmHg 57%
    15:00 +26°C° 0.9 mm 6 m/S 741 mmHg 66%
    16:00 +22°C° 0.9 mm 6 m/S 741 mmHg 76%
    17:00 +20°C° 0.9 mm 7 m/S 741 mmHg 85%
    18:00 +20°C° 0.4 mm 5 m/S 741 mmHg 86%
    19:00 +19°C° 0.4 mm 4 m/S 741 mmHg 87%
    20:00 +19°C° 0.4 mm 3 m/S 740 mmHg 88%
    21:00 +19°C° 0.2 mm 3 m/S 740 mmHg 91%
    22:00 +18°C° 0.2 mm 3 m/S 740 mmHg 93%
    23:00 +18°C° 0.2 mm 3 m/S 740 mmHg 95%

    29 Mai, Mittwoch

    Zeit Temperatur Niederschläge Wind Luftdruck Luftfeuchtigkeit
    00:00 +18°C° 0 mm 3 m/S 740 mmHg 95%
    01:00 +18°C° 0 mm 3 m/S 740 mmHg 95%
    02:00 +17°C° 0 mm 3 m/S 740 mmHg 95%
    03:00 +17°C° 0 mm 3 m/S 740 mmHg 95%
    04:00 +16°C° 0 mm 3 m/S 740 mmHg 96%
    05:00 +16°C° 0 mm 3 m/S 740 mmHg 97%
    06:00 +16°C° 0 mm 3 m/S 740 mmHg 95%
    07:00 +17°C° 0 mm 3 m/S 741 mmHg 93%
    08:00 +17°C° 0 mm 4 m/S 741 mmHg 92%
    09:00 +17°C° 0 mm 4 m/S 742 mmHg 89%
    10:00 +18°C° 0 mm 4 m/S 742 mmHg 85%
    11:00 +18°C° 0 mm 4 m/S 743 mmHg 82%
    12:00 +18°C° 0 mm 4 m/S 743 mmHg 80%
    13:00 +18°C° 0 mm 3 m/S 743 mmHg 78%
    14:00 +18°C° 0 mm 3 m/S 743 mmHg 76%
    15:00 +18°C° 0 mm 3 m/S 744 mmHg 76%
    16:00 +18°C° 0 mm 3 m/S 744 mmHg 76%
    17:00 +18°C° 0 mm 2 m/S 744 mmHg 76%
    18:00 +18°C° 0 mm 2 m/S 744 mmHg 79%
    19:00 +17°C° 0 mm 2 m/S 744 mmHg 82%
    20:00 +16°C° 0 mm 2 m/S 744 mmHg 85%
    21:00 +16°C° 0 mm 2 m/S 745 mmHg 88%
    22:00 +15°C° 0 mm 2 m/S 745 mmHg 91%
    23:00 +13°C° 0 mm 3 m/S 745 mmHg 94%

    30 Mai, Donnerstag

    Zeit Temperatur Niederschläge Wind Luftdruck Luftfeuchtigkeit
    00:00 +13°C° 0.5 mm 3 m/S 746 mmHg 93%
    01:00 +13°C° 0.5 mm 3 m/S 746 mmHg 93%
    02:00 +13°C° 0.5 mm 3 m/S 746 mmHg 93%
    03:00 +12°C° 2.9 mm 4 m/S 746 mmHg 93%
    04:00 +12°C° 2.9 mm 4 m/S 747 mmHg 94%
    05:00 +12°C° 2.9 mm 4 m/S 747 mmHg 95%
    06:00 +12°C° 0.1 mm 4 m/S 747 mmHg 94%
    07:00 +12°C° 0.1 mm 3 m/S 748 mmHg 92%
    08:00 +12°C° 0.1 mm 3 m/S 748 mmHg 90%
    09:00 +13°C° 0 mm 4 m/S 749 mmHg 83%
    10:00 +15°C° 0 mm 4 m/S 749 mmHg 76%
    11:00 +16°C° 0 mm 5 m/S 750 mmHg 69%
    12:00 +16°C° 0 mm 5 m/S 750 mmHg 68%
    13:00 +17°C° 0 mm 5 m/S 750 mmHg 66%
    14:00 +17°C° 0 mm 5 m/S 751 mmHg 65%
    15:00 +17°C° 0 mm 5 m/S 751 mmHg 66%
    16:00 +16°C° 0 mm 5 m/S 751 mmHg 67%
    17:00 +16°C° 0 mm 5 m/S 751 mmHg 69%
    18:00 +15°C° 0 mm 4 m/S 752 mmHg 73%
    19:00 +14°C° 0 mm 3 m/S 752 mmHg 77%
    20:00 +14°C° 0 mm 2 m/S 753 mmHg 81%
    21:00 +13°C° 0 mm 2 m/S 753 mmHg 84%
    22:00 +12°C° 0 mm 2 m/S 753 mmHg 87%
    23:00 +10°C° 0 mm 2 m/S 754 mmHg 89%

    31 Mai, Freitag

    Zeit Temperatur Niederschläge Wind Luftdruck Luftfeuchtigkeit
    00:00 +10°C° 0 mm 2 m/S 754 mmHg 90%
    01:00 +10°C° 0 mm 1 m/S 754 mmHg 91%
    02:00 +10°C° 0 mm 1 m/S 754 mmHg 92%
    03:00 +10°C° 0 mm 1 m/S 754 mmHg 93%
    04:00 +9°C° 0 mm 1 m/S 754 mmHg 93%
    05:00 +9°C° 0 mm 1 m/S 753 mmHg 93%
    06:00 +10°C° 0 mm 2 m/S 753 mmHg 85%
    07:00 +13°C° 0 mm 2 m/S 753 mmHg 78%
    08:00 +14°C° 0 mm 3 m/S 753 mmHg 71%
    09:00 +16°C° 0 mm 3 m/S 753 mmHg 66%
    10:00 +17°C° 0 mm 4 m/S 753 mmHg 61%
    11:00 +19°C° 0 mm 4 m/S 752 mmHg 57%
    12:00 +20°C° 0 mm 5 m/S 752 mmHg 56%
    13:00 +20°C° 0 mm 5 m/S 752 mmHg 56%
    14:00 +21°C° 0 mm 5 m/S 751 mmHg 56%
    15:00 +20°C° 0.6 mm 5 m/S 752 mmHg 63%
    16:00 +20°C° 0.6 mm 5 m/S 752 mmHg 71%
    17:00 +19°C° 0.6 mm 6 m/S 752 mmHg 78%
    18:00 +15°C° 0.5 mm 6 m/S 752 mmHg 81%
    19:00 +13°C° 0.5 mm 6 m/S 753 mmHg 84%
    20:00 +9°C° 0.5 mm 6 m/S 754 mmHg 87%
    21:00 +8°C° 0 mm 5 m/S 754 mmHg 88%
    22:00 +7°C° 0 mm 4 m/S 755 mmHg 89%
    23:00 +7°C° 0 mm 3 m/S 756 mmHg 89%
    Mehr zeigen